Location: Clairmont
(55.2667°N, 118.8000°W)
Time: 15:18:09
(UTC+00:00)

Envisat - Pass Details

Date: 29 October 2020
Orbit: 764 x 766 km, 98.1° (Epoch: 03 December)

Event Time Altitude Azimuth Distance (km) Brightness Sun altitude
Rises 12:23:44 0° 26° (NNE) 3,247 6.7 -21.9°
Reaches altitude 10° 12:27:16 10° 52° (NE) 2,314 6.3 -21.4°
Maximum altitude 12:29:52 14° 83° (E) 2,044 6.3 -21.0°
Drops below altitude 10° 12:32:29 10° 114° (ESE) 2,305 6.3 -20.7°
Sets 12:35:58 0° 140° (SE) 3,224 6.7 -20.2°
